Volver al catálogo

DELTA 1 DEB

ActivoSSO
NORAD 42652·DEBRIS·🇺🇸 United States

Lanzado Jun 12, 1975 desde Vandenberg Space Force Base

Loading…

Próximos Pases (próximas 24 horas)

TLE

ActualizadoSource: Space-Track

Época: Sep 13, 2026, 05:00 UTC

1 42652U 75052MM  26256.20857730  .00000166  00000-0  41573-3 0  9997
2 42652  99.7890  38.7028 0073587 120.4441   3.6336 13.33228341622985

Sigue DELTA 1 DEB en tiempo real con AllMySat

Download on the App Store